Regional Weather Roundup
Issued by NWS Charleston, WV

Home | Current Version | Previous Version | Graphics & Text | Print | Product List | Glossary On
Versions: 1 2 3 4 5 6 7 8 9 10 11 12 13 14 15 16 17 18 19 20 21 22 23 24 25 26 27 28 29 30 31 32 33 34 35 36 37 38 39 40 41 42 43 44 45 46 47 48 49 50
000
ASUS41 KRLX 110110
RWRRLX
West Virginia Regional Weather Roundup
National Weather Service Charleston WV
900 PM EDT THU JUL 10 2014

Note: "fair" indicates few or no clouds below 12,000 feet with no
significant weather and/or obstructions to visibility.

WVZ003-110200-
Northern Panhandle of West Virginia

CITY           SKY/WX    TMP DP  RH WIND       PRES   REMARKS
WHEELING       CLEAR     73  57  57 NE6       30.12R
$$

WVZ009-110200-
Northwest West Virginia

CITY           SKY/WX    TMP DP  RH WIND       PRES   REMARKS
PARKERSBURG    CLEAR     73  64  73 CALM      30.13R
$$

WVZ006-110200-
Western West Virginia

CITY           SKY/WX    TMP DP  RH WIND       PRES   REMARKS
HUNTINGTON     PTCLDY    76  61  59 N3        30.09R
$$

WVZ015-110200-
West Central West Virginia

CITY           SKY/WX    TMP DP  RH WIND       PRES   REMARKS
CHARLESTON     MOCLDY    71  67  87 CALM      30.10R
$$

WVZ031-110200-
North Central West Virginia

CITY           SKY/WX    TMP DP  RH WIND       PRES   REMARKS
CLARKSBURG     PTCLDY    73  61  65 NE3       30.12R
MORGANTOWN     PTCLDY    74  63  68 CALM      30.13R
$$

WVZ035-042-045-110200-
South Central West Virginia

CITY           SKY/WX    TMP DP  RH WIND       PRES   REMARKS
BECKLEY        PTCLDY    73  58  59 N5        30.17R
BLUEFIELD      MOCLDY    74  55  51 CALM      30.19R
LEWISBURG      MOCLDY    73  60  63 CALM      30.15R
$$

WVZ047-110200-
Northern Mountains of West Virginia

CITY           SKY/WX    TMP DP  RH WIND       PRES   REMARKS
ELKINS         PTCLDY    67  61  81 CALM      30.16R
$$

WVZ052-110200-
Eastern Panhandle of West Virginia

CITY           SKY/WX    TMP DP  RH WIND       PRES   REMARKS
MARTINSBURG    MOCLDY    75  61  61 E5        30.12R
PETERSBURG     PTCLDY    67  62  83 W3        30.15R
$$


USA.gov is the U.S. government's official web portal to all federal, state and local government web resources and services.